Fort Leonard Wood, MO

9:52 AM CDT on April 19, 2018 (GMT -0500)
Waynesville Regional At Forney Field

Weather History for KTBN - December, 2012

Change the Weather History Date:

Sunday, December 30, 2012

  Actual Average Record
Temperature  
Mean Temperature 32 °F -  
Max Temperature 44 °F 40 °F 66 °F (2004)
Min Temperature 21 °F 26 °F 7 °F (2013)
Degree Days  
Heating Degree Days 32    
Moisture  
Dew Point 18 °F    
Average Humidity 57    
Maximum Humidity 78    
Minimum Humidity 30    
Precipitation  
Precipitation 0.00 in - - ()
Sea Level Pressure  
Sea Level Pressure 30.35 in    
Wind  
Wind Speed 7 mph (South)    
Max Wind Speed 13 mph    
Max Gust Speed 18 mph    
Visibility 10 miles    
Events      
Averages and records for this station are not official NWS values.
T = Trace of Precipitation, MM = Missing Value Source: NWS Daily Summary

Daily Weather History Graph

Daily Weather History Graph

Search for Another Location

Airport or City:

Astronomy

Dec. 30, 2012 Rise Set
Actual Time 7:23 AM CST 4:59 PM CST
Civil Twilight 6:54 AM CST 5:28 PM CST
Nautical Twilight 6:21 AM CST 6:01 PM CST
Astronomical Twilight 5:49 AM CST 6:33 PM CST
Moon 7:27 PM CST (12/30) 8:35 AM CST (12/30)
Length of Visible Light 10h 34m
Length of Day
9h 35m
Waning Gibbous, 95% of the Moon is Illuminated
Dec 30
Waning Gibbous
Jan 4
Last Quarter
Jan 11
New
Jan 18
First Quarter
Jan 26
Full

Hourly Weather History & Observations

Time (CST) Temp. Windchill Dew Point Humidity Pressure Visibility Wind Dir Wind Speed Gust Speed Precip Events Conditions
12:55 AM 22.5 °F 15.1 °F 16.3 °F 77% 30.38 in 10.0 mi SW 5.8 mph - N/A   Clear
1:55 AM 23.2 °F 17.2 °F 16.2 °F 75% 30.39 in 10.0 mi SW 4.6 mph - N/A   Clear
2:55 AM 22.5 °F 16.3 °F 16.0 °F 76% 30.41 in 10.0 mi SSW 4.6 mph - N/A   Clear
3:55 AM 21.7 °F 15.5 °F 15.8 °F 78% 30.40 in 10.0 mi SW 4.6 mph - N/A   Clear
4:55 AM 23.0 °F 18.4 °F 16.0 °F 74% 30.40 in 10.0 mi SW 3.5 mph - N/A   Clear
5:55 AM 22.1 °F 14.7 °F 16.0 °F 77% 30.41 in 10.0 mi SSW 5.8 mph - N/A   Clear
6:55 AM 22.8 °F 16.7 °F 16.2 °F 76% 30.43 in 10.0 mi SSW 4.6 mph - N/A   Clear
7:55 AM 24.3 °F 19.9 °F 16.3 °F 72% 30.43 in 10.0 mi South 3.5 mph - N/A   Clear
8:55 AM 29.7 °F 24.7 °F 18.5 °F 63% 30.42 in 10.0 mi South 4.6 mph - N/A   Clear
9:55 AM 35.2 °F 32.4 °F 19.0 °F 52% 30.43 in 10.0 mi Variable 3.5 mph - N/A   Clear
10:55 AM 38.1 °F 33.7 °F 20.5 °F 49% 30.44 in 10.0 mi Variable 5.8 mph - N/A   Clear
11:55 AM 42.8 °F 36.6 °F 17.2 °F 36% 30.39 in 10.0 mi SSW 11.5 mph - N/A   Clear
12:55 PM 42.8 °F 37.5 °F 13.8 °F 31% 30.34 in 10.0 mi South 9.2 mph - N/A   Clear
1:55 PM 44.2 °F 38.0 °F 14.4 °F 30% 30.33 in 10.0 mi South 12.7 mph 18.4 mph N/A   Clear
2:55 PM 43.0 °F 37.2 °F 14.5 °F 32% 30.34 in 10.0 mi SSW 10.4 mph - N/A   Clear
3:55 PM 41.2 °F 35.0 °F 18.1 °F 40% 30.31 in 10.0 mi South 10.4 mph - N/A   Scattered Clouds
4:55 PM 38.5 °F 31.6 °F 20.1 °F 48% 30.30 in 10.0 mi South 10.4 mph - N/A   Clear
5:55 PM 36.3 °F 28.9 °F 19.9 °F 52% 30.30 in 10.0 mi South 10.4 mph - N/A   Clear
6:55 PM 36.0 °F 28.5 °F 20.3 °F 53% 30.29 in 10.0 mi SSE 10.4 mph - N/A   Clear
7:55 PM 35.8 °F 27.3 °F 20.3 °F 53% 30.27 in 10.0 mi South 12.7 mph - N/A   Clear
8:55 PM 35.6 °F 28.0 °F 20.1 °F 53% 30.25 in 10.0 mi South 10.4 mph - N/A   Scattered Clouds
9:55 PM 35.4 °F 27.3 °F 20.1 °F 54% 30.24 in 10.0 mi South 11.5 mph - N/A   Overcast
10:55 PM 34.9 °F 26.6 °F 19.8 °F 54% 30.23 in 10.0 mi South 11.5 mph - N/A   Overcast
11:55 PM 35.4 °F 28.4 °F 19.6 °F 53% 30.22 in 10.0 mi South 9.2 mph - N/A   Mostly Cloudy